User: anonymous   Login
Location: Ahausen
(50.4985°N, 8.2722°E)
Time: 01:11:05
(UTC+00:00)
Language:

Cosmos 468 - Orbit

View from above orbital plane
View from above orbital plane
View from above satellite
View from above satellite

Ground track
Ground track

The orbit data is extracted from the following two-line orbital elements,

1  5705U 71114A   20336.77833641  .00000040  00000-0  23001-4 0  9998
2  5705  74.0191   0.9302 0015119 178.6057 181.5140 14.35725073561061
Epoch (UTC): 01 December 2020 18:40:48
Eccentricity: 0.0015119
inclination: 74.0191°
perigee height: 762 km
apogee height: 783 km
right ascension of ascending node: 0.9302°
argument of perigee: 178.6057°
revolutions per day: 14.35725073
mean anomaly at epoch: 181.5140°
orbit number at epoch: 56106

The dashed part of the orbit path shows where the satellite is in the earth's shadow,  

DLR